Regional Weather Roundup
Issued by NWS

Home | Current Version | Previous Version | Graphics & Text | Print | Product List | Glossary On
Versions: 1 2 3 4 5 6 7 8 9 10 11 12 13 14 15 16 17 18 19 20 21 22 23 24 25 26 27 28 29 30 31 32 33 34 35 36 37 38 39 40 41 42 43 44 45 46 47 48 49 50
000
ASUS43 KTOP 220659
RWRKS

WEATHER ROUNDUP FOR KANSAS
NATIONAL WEATHER SERVICE GOODLAND KS
200 AM CDT FRI SEP 22 2017

NOTE:  "FAIR" INDICATES FEW OR NO CLOUDS BELOW 12,000 FEET WITH NO
SIGNIFICANT WEATHER AND/OR OBSTRUCTIONS TO VISIBILITY.

KSZ001>006-013>018-027>032-041>047-220800-
NORTHWEST KANSAS

CITY           SKY/WX    TMP DP  RH WIND       PRES   REMARKS
GOODLAND       CLEAR     65  44  46 S14       29.71S
HAYS           CLEAR     80  69  69 S23G29    29.77R
HILL CITY      CLEAR     81  68  64 S21G31    29.74R
RUSSELL        CLEAR     80  69  69 S24G38    29.78R
$$

KSZ061>065-074>080-084>089-220800-
SOUTHWEST KANSAS

CITY           SKY/WX    TMP DP  RH WIND       PRES   REMARKS
DODGE CITY     CLEAR     78  67  68 S25       29.82S
ELKHART          N/A     70  55  59 S15         N/A
GARDEN CITY    CLEAR     76  65  68 S22G31    29.79R
GREAT BEND     CLEAR     79  70  74 S23G32    29.81S
LIBERAL        CLEAR     76  62  62 S23G29    29.81S
$$

KSZ066>073-081>083-090>101-220800-
SOUTHEAST KANSAS

CITY           SKY/WX    TMP DP  RH WIND       PRES   REMARKS
CHANUTE        CLEAR     75  69  81 SE8       29.94R
COFFEYVILLE    CLEAR     73  69  87 SE5       29.92R
HUTCHINSON     CLEAR     79  70  74 S18G24    29.85R
MEDICINE LODGE   N/A     78  67  68 S13G20    29.85R
NEWTON         CLEAR     78  68  71 S17G24    29.89R
WICHITA INTL   CLEAR     79  69  71 S17       29.87S
WICHITA JABRA  CLEAR     78  70  76 S14       29.89R
WINFIELD       CLEAR     77  70  79 SE9       29.91R
$$

KSZ007>012-019>026-033>040-048>060-102>105-220800-
NORTHEAST KANSAS

CITY           SKY/WX    TMP DP  RH WIND       PRES   REMARKS
CONCORDIA      PTCLDY    80  71  74 S17G26    29.81R
EMPORIA        CLEAR     76  70  82 S17G25    29.90R
LAWRENCE       CLEAR     77  71  82 SE10      29.91R
MANHATTAN      PTCLDY    82  70  66 S17G25    29.84S
OLATHE IND     CLEAR     76  70  82 S12       29.94R
OLATHE EXE     CLEAR     74  70  87 S12       29.94R
SALINA         CLEAR     83  69  62 S22G30    29.83R
TOPEKA BILLARD CLEAR     78  72  81 S14G21    29.89R
TOPEKA FORBES  CLEAR     78  72  81 S12       29.90R
$$




USA.gov is the U.S. government's official web portal to all federal, state and local government web resources and services.